[[{"header":{"parameterUnit":"m.s-1","parameterCategory":1,"la1":30.2991,"la2":30.254,"lo1":-89.0895,"lo2":-89.0444,"dy":0.0017,"dx":0.0017,"nx":28,"ny":28,"refTime":"2025-03-09T21:00:00:Z","depth":0,"parameterNumber":2,"parameterNumberName":"U-component_of_WINDS"},"data":[0,0,0,0,0,0,0,0,0,0,0,0,0,0,0,0,0,0,0,0,0,0,0,0,0,0,0,0,0,0,0,0,0,0,0,0,0,0,0,0,0,0,0,0,0,0,0,0,0,0,0,0,0,0,0,0,0,0,-1.3453,-1.3454,0,-1.3563,-1.3565,-1.3566,-1.3563,-1.3561,-1.356,-1.3558,-1.3682,-1.3686,-1.3691,0,0,0,0,0,0,0,0,0,0,0,0,0,-1.3251,-1.3255,-1.3453,-1.3454,-1.3456,-1.3563,-1.3565,-1.3566,-1.3563,-1.3561,-1.3559,-1.3558,-1.368,-1.3686,-1.3691,0,0,0,0,0,0,0,0,0,0,0,0,0,-1.3348,-1.3256,-1.3453,-1.3467,-1.3469,-1.3563,-1.3565,-1.3567,-1.3564,-1.3561,-1.3559,-1.3557,-1.3678,-1.3685,-1.3692,-1.3782,0,0,-1.3714,-1.3717,0,0,0,0,0,0,0,0,-1.3343,-1.3356,-1.3463,-1.3466,-1.3469,-1.3547,-1.3539,-1.3639,-1.3564,-1.3528,-1.3558,-1.3556,-1.3639,-1.3649,-1.3675,-1.3788,-1.3793,-1.3714,-1.3719,-1.3722,-1.3724,0,0,0,0,0,0,0,-1.3336,-1.3351,-1.3497,-1.3465,-1.3468,-1.3472,-1.3483,-1.3558,-1.3596,-1.3531,-1.3531,-1.3544,-1.364,-1.3669,-1.3678,-1.3795,-1.3714,-1.372,-1.3725,-1.3727,-1.3991,-1.3993,0,0,0,0,0,0,-1.3325,-1.3345,-1.3493,-1.35,-1.3398,-1.3477,-1.3489,-1.3524,-1.3595,-1.3603,-1.3545,-1.3543,-1.3658,-1.367,-1.3683,-1.3795,-1.3721,-1.3728,-1.3732,-1.3988,-1.3991,-1.3994,0,0,0,0,0,0,-1.332,-1.3338,-1.3489,-1.3423,-1.3442,-1.3483,-1.3522,-1.3528,-1.3556,-1.3605,-1.3613,-1.3567,-1.3656,-1.3673,-1.3757,-1.3799,-1.3731,-1.3738,-1.3985,-1.3989,-1.3993,-1.4019,0,0,0,0,0,0,-1.3315,-1.3336,-1.3368,-1.3423,-1.3446,-1.3558,-1.3524,-1.3531,-1.3567,-1.3565,-1.3627,-1.3636,-1.3656,-1.3747,-1.3764,-1.3808,-1.3743,-1.3981,-1.3986,-1.3991,-1.4015,-1.4024,-1.4031,0,0,0,0,0,-1.3307,-1.3373,-1.337,-1.3388,-1.3486,-1.3561,-1.3574,-1.3593,-1.357,-1.3604,-1.3637,-1.3634,-1.3791,-1.3755,-1.3775,-1.3821,-1.3979,-1.3985,-1.3991,-1.4011,-1.4022,-1.4031,0,0,0,0,0,0,-1.3324,-1.338,-1.3377,-1.3462,-1.3506,-1.356,-1.3604,-1.3603,-1.3658,-1.3654,-1.3678,-1.3692,-1.3778,-1.3808,-1.3767,-1.3914,-1.3883,-1.3893,-1.3891,-1.3902,-1.391,-1.3902,-1.3749,0,0,0,0,0,-1.3337,-1.339,-1.3437,-1.3507,-1.3529,-1.3563,-1.3596,-1.3607,-1.3655,-1.3675,-1.3713,-1.3764,-1.3825,-1.3865,-1.3924,-1.4019,-1.4035,-1.4061,-1.4069,-1.4075,-1.4085,-1.4141,-1.4154,-1.4014,-1.4014,-1.4014,0,0,-1.3366,-1.3403,-1.3435,-1.3512,-1.3547,-1.3606,-1.3579,-1.3641,-1.3685,-1.3686,-1.3767,-1.3798,-1.3856,-1.3947,-1.3989,-1.3975,-1.4127,-1.4083,-1.4088,-1.4094,-1.4149,-1.4162,-1.4174,-1.4019,-1.4018,-1.4017,0,0,-1.3448,-1.3479,-1.3542,-1.3578,-1.3632,-1.3653,-1.3669,-1.3723,-1.3742,-1.3824,-1.3826,-1.3882,-1.3985,-1.4028,-1.4063,-1.4162,-1.4163,-1.4181,-1.4225,-1.428,-1.4291,-1.4301,-1.434,-1.4353,-1.419,-1.419,-1.419,0,-1.3477,-1.3561,-1.3576,-1.3638,-1.3674,-1.3673,-1.374,-1.3775,-1.3847,-1.3873,-1.3855,-1.3987,-1.4026,-1.4129,-1.4153,-1.418,-1.4202,-1.4175,-1.4287,-1.4298,-1.4307,-1.4345,-1.4359,-1.4192,-1.4192,-1.4192,-1.4192,0,-1.3597,-1.3655,-1.37,-1.3766,-1.3807,-1.3871,-1.3899,-1.3939,-1.3947,-1.3972,-1.4058,-1.4105,-1.4174,-1.4199,-1.4208,-1.4304,-1.4294,-1.4281,-1.4251,-1.4322,-1.4358,-1.4372,-1.4195,-1.4194,-1.4194,-1.4193,0,0,-1.3693,-1.3766,-1.3783,-1.3814,-1.3873,-1.3921,-1.3987,-1.4052,-1.4088,-1.4137,-1.4196,-1.4285,-1.4274,-1.4314,-1.4328,-1.4375,-1.4456,-1.4358,-1.436,-1.4377,-1.4569,-1.458,-1.4596,-1.4456,-1.4458,-1.4461,-1.4565,0,-1.3783,-1.3896,-1.3912,-1.4014,-1.4071,-1.4073,-1.4131,-1.4176,-1.4202,-1.4257,-1.4287,-1.435,-1.4329,-1.4354,-1.4401,-1.4436,-1.4495,-1.4428,-1.4515,-1.4518,-1.4503,-1.4614,-1.4625,-1.4722,-1.4579,-1.4582,-1.4583,0,-1.3903,-1.3954,-1.406,-1.4114,-1.4139,-1.419,-1.4253,-1.4304,-1.4357,-1.4373,-1.4417,-1.4426,-1.4499,-1.4464,-1.4568,-1.4522,-1.4559,-1.4582,-1.4586,-1.4597,-1.4557,-1.4631,-1.4753,-1.4768,-1.4605,-1.4603,-1.4602,0,-1.3966,-1.4061,-1.4138,-1.4164,-1.4228,-1.4265,-1.4294,-1.4344,-1.4383,-1.4439,-1.4466,-1.453,-1.4567,-1.4619,-1.4646,-1.4617,-1.475,-1.4716,-1.4769,-1.4769,-1.4799,-1.4797,-1.493,-1.4818,-1.4817,-1.4817,-1.4817,0,-1.4067,-1.4133,-1.4167,-1.4215,-1.4291,-1.431,-1.4386,-1.4415,-1.446,-1.4516,-1.4522,-1.4576,-1.4607,-1.4667,-1.469,-1.4775,-1.479,-1.4809,-1.4814,-1.4809,-1.4808,-1.4836,-1.4831,-1.4821,-1.482,-1.4819,-1.4819,0,-1.4151,-1.4176,-1.426,-1.4313,-1.4328,-1.4382,-1.443,-1.4479,-1.4504,-1.4576,-1.4594,-1.4635,-1.4706,-1.4738,-1.4826,-1.4842,-1.4939,-1.4939,-1.492,-1.4923,-1.4975,-1.4971,-1.5134,-1.5158,-1.5027,-1.5028,-1.5029,0,-1.4214,-1.4265,-1.4323,-1.436,-1.4389,-1.4448,-1.4487,-1.451,-1.4551,-1.4617,-1.4659,-1.4729,-1.4786,-1.49,-1.4941,-1.5009,-1.5013,-1.5065,-1.5023,-1.5018,-1.5017,-1.5015,-1.5022,-1.5073,-1.5075,-1.5076,-1.5077,0,-1.4326,-1.4336,-1.439,-1.445,-1.4496,-1.4545,-1.4593,-1.4624,-1.4654,-1.4702,-1.4772,-1.4816,-1.4906,-1.4977,-1.5048,-1.5083,-1.5088,-1.5089,-1.5106,-1.5103,-1.5091,-1.5101,-1.4944,-1.5086,-1.5085,-1.5084,-1.5084,-1.5083,-1.4404,-1.445,-1.4498,-1.456,-1.4598,-1.4643,-1.4692,-1.4722,-1.478,-1.4853,-1.4863,-1.494,-1.4996,-1.5091,-1.5128,-1.5192,-1.518,-1.5203,-1.5209,-1.5215,-1.522,-1.5078,-1.5205,-1.5205,-1.5204,-1.5204,-1.5204,0,-1.4518,-1.4549,-1.4605,-1.4671,-1.4721,-1.4715,-1.4769,-1.4812,-1.4878,-1.4928,-1.4983,-1.5067,-1.5137,-1.5183,-1.5254,-1.5297,-1.53,-1.5315,-1.5314,-1.5322,-1.5225,-1.5205,-1.5311,-1.5311,-1.5311,-1.5311,-1.5311,-1.5311,-1.4583,-1.4662,-1.4678,-1.4777,-1.4809,-1.4881,-1.4913,-1.4956,-1.4996,-1.5088,-1.5144,-1.5172,-1.5222,-1.5298,-1.5363,-1.5375,-1.5403,-1.5419,-1.5431,-1.534,-1.5329,-1.5318,-1.53,-1.5424,-1.5424,-1.5523,-1.5524,-1.5525]},{"header":{"parameterUnit":"m.s-1","parameterCategory":1,"la1":30.2991,"la2":30.254,"lo1":-89.0895,"lo2":-89.0444,"dy":0.0017,"dx":0.0017,"nx":28,"ny":28,"refTime":"2025-03-09T21:00:00:Z","depth":0,"parameterNumber":3,"parameterNumberName":"V-component_of_WINDS"},"data":[0,0,0,0,0,0,0,0,0,0,0,0,0,0,0,0,0,0,0,0,0,0,0,0,0,0,0,0,0,0,0,0,0,0,0,0,0,0,0,0,0,0,0,0,0,0,0,0,0,0,0,0,0,0,0,0,0,0,-3.8553,-3.8551,0,-3.8433,-3.8432,-3.843,-3.8361,-3.8361,-3.836,-3.836,-3.8228,-3.8225,-3.8221,0,0,0,0,0,0,0,0,0,0,0,0,0,-3.871,-3.8708,-3.8553,-3.8551,-3.855,-3.8433,-3.8432,-3.843,-3.8361,-3.8361,-3.836,-3.836,-3.8229,-3.8225,-3.8221,0,0,0,0,0,0,0,0,0,0,0,0,0,-3.8621,-3.8707,-3.8553,-3.8502,-3.8496,-3.8434,-3.8432,-3.8429,-3.8361,-3.8361,-3.836,-3.836,-3.823,-3.8225,-3.822,-3.8197,0,0,-3.8205,-3.8203,0,0,0,0,0,0,0,0,-3.8626,-3.8615,-3.8511,-3.8505,-3.8498,-3.8412,-3.8438,-3.8351,-3.8361,-3.8412,-3.836,-3.836,-3.8289,-3.8279,-3.8257,-3.8191,-3.8186,-3.8205,-3.8202,-3.82,-3.8198,0,0,0,0,0,0,0,-3.8633,-3.862,-3.8505,-3.8509,-3.8502,-3.8481,-3.8468,-3.8422,-3.8353,-3.8407,-3.8402,-3.8389,-3.8285,-3.8262,-3.8253,-3.8184,-3.8205,-3.8201,-3.8198,-3.8196,-3.8088,-3.8088,0,0,0,0,0,0,-3.8648,-3.8626,-3.8509,-3.8501,-3.8563,-3.8478,-3.8464,-3.844,-3.8354,-3.8341,-3.839,-3.8387,-3.827,-3.8259,-3.8248,-3.8213,-3.82,-3.8195,-3.8192,-3.8088,-3.8088,-3.8088,0,0,0,0,0,0,-3.8652,-3.8639,-3.8514,-3.8562,-3.8545,-3.8476,-3.845,-3.8438,-3.8414,-3.8341,-3.8327,-3.8379,-3.827,-3.8255,-3.821,-3.8208,-3.8193,-3.8189,-3.8088,-3.8088,-3.8088,-3.8145,0,0,0,0,0,0,-3.8657,-3.864,-3.8634,-3.8563,-3.8542,-3.8482,-3.845,-3.8435,-3.8407,-3.8402,-3.8327,-3.8314,-3.8268,-3.8218,-3.8205,-3.8201,-3.8185,-3.8088,-3.8088,-3.8088,-3.8143,-3.8147,-3.8151,0,0,0,0,0,-3.8663,-3.8653,-3.8634,-3.862,-3.8534,-3.8482,-3.847,-3.842,-3.8407,-3.8398,-3.835,-3.8317,-3.821,-3.8214,-3.8199,-3.8193,-3.8088,-3.8088,-3.8088,-3.8141,-3.8146,-3.8151,0,0,0,0,0,0,-3.8724,-3.8643,-3.8621,-3.8589,-3.8543,-3.847,-3.8458,-3.8427,-3.8381,-3.8378,-3.8314,-3.8298,-3.8258,-3.8221,-3.8227,-3.8164,-3.8145,-3.8142,-3.8191,-3.8195,-3.8198,-3.8208,-3.8181,0,0,0,0,0,-3.8734,-3.8702,-3.8632,-3.861,-3.8589,-3.8527,-3.8503,-3.8468,-3.8417,-3.8396,-3.8345,-3.8293,-3.8247,-3.8219,-3.8173,-3.8137,-3.8117,-3.8125,-3.8129,-3.8132,-3.813,-3.8105,-3.8106,-3.8089,-3.8089,-3.8089,0,0,-3.8754,-3.8706,-3.8689,-3.8621,-3.8582,-3.8547,-3.8511,-3.8476,-3.8448,-3.8389,-3.8345,-3.8305,-3.8242,-3.8201,-3.818,-3.8168,-3.8131,-3.8132,-3.8136,-3.8132,-3.8105,-3.8107,-3.8108,-3.8089,-3.8089,-3.8089,0,0,-3.8773,-3.8734,-3.8711,-3.8672,-3.8613,-3.8572,-3.8566,-3.8497,-3.8469,-3.8424,-3.8378,-3.8341,-3.8265,-3.8222,-3.819,-3.8188,-3.8155,-3.8175,-3.8194,-3.817,-3.8172,-3.8173,-3.817,-3.817,-3.8173,-3.8173,-3.8173,0,-3.8804,-3.8753,-3.8702,-3.867,-3.8639,-3.8587,-3.856,-3.8523,-3.8451,-3.843,-3.8418,-3.832,-3.8274,-3.822,-3.822,-3.8196,-3.8185,-3.8183,-3.8176,-3.8177,-3.8177,-3.8173,-3.8172,-3.8176,-3.8176,-3.8175,-3.8175,0,-3.8793,-3.8758,-3.8745,-3.868,-3.8648,-3.8619,-3.8559,-3.8532,-3.8499,-3.8458,-3.8409,-3.8352,-3.8293,-3.8277,-3.8244,-3.8217,-3.8212,-3.8189,-3.8169,-3.8182,-3.8177,-3.8176,-3.818,-3.8179,-3.8178,-3.8177,0,0,-3.8849,-3.8755,-3.8751,-3.8719,-3.8649,-3.8618,-3.8584,-3.8529,-3.8505,-3.8456,-3.8423,-3.8359,-3.8336,-3.83,-3.8261,-3.824,-3.8239,-3.8218,-3.8216,-3.8223,-3.8202,-3.822,-3.8219,-3.8216,-3.8215,-3.8215,-3.8207,0,-3.8856,-3.8797,-3.8749,-3.8706,-3.867,-3.8618,-3.8587,-3.8538,-3.8498,-3.8458,-3.8411,-3.8366,-3.8341,-3.8319,-3.8296,-3.8244,-3.8233,-3.8244,-3.8181,-3.818,-3.8199,-3.8217,-3.8236,-3.8232,-3.8205,-3.8205,-3.8205,0,-3.8858,-3.8813,-3.8768,-3.8698,-3.8681,-3.8656,-3.8599,-3.8564,-3.8505,-3.8476,-3.8435,-3.8394,-3.835,-3.8333,-3.827,-3.8279,-3.8249,-3.8219,-3.8218,-3.821,-3.8193,-3.8208,-3.8229,-3.8229,-3.8202,-3.8202,-3.8202,0,-3.8901,-3.8829,-3.8792,-3.8766,-3.8685,-3.8667,-3.8632,-3.8574,-3.8542,-3.8491,-3.8469,-3.8413,-3.8381,-3.8336,-3.8279,-3.8273,-3.8221,-3.82,-3.8192,-3.8194,-3.8184,-3.8186,-3.82,-3.8167,-3.8167,-3.8167,-3.8167,0,-3.8914,-3.8888,-3.881,-3.8787,-3.8754,-3.8696,-3.8664,-3.8623,-3.8571,-3.8536,-3.8486,-3.8453,-3.838,-3.8336,-3.8291,-3.8244,-3.823,-3.8203,-3.8191,-3.8207,-3.8211,-3.8187,-3.8185,-3.8166,-3.8167,-3.8167,-3.8167,0,-3.8957,-3.8905,-3.886,-3.8787,-3.8768,-3.8747,-3.8682,-3.8655,-3.8611,-3.8566,-3.8552,-3.8481,-3.8428,-3.8366,-3.8291,-3.826,-3.8216,-3.8199,-3.8237,-3.823,-3.8226,-3.8227,-3.8225,-3.822,-3.8192,-3.8192,-3.8193,0,-3.8969,-3.8948,-3.8873,-3.8847,-3.8814,-3.8773,-3.8742,-3.8682,-3.865,-3.858,-3.856,-3.8504,-3.8455,-3.837,-3.831,-3.8251,-3.8231,-3.8234,-3.8222,-3.8238,-3.8229,-3.8231,-3.8227,-3.8238,-3.8239,-3.8239,-3.824,0,-3.8995,-3.897,-3.8928,-3.8876,-3.884,-3.8795,-3.8748,-3.8728,-3.8658,-3.8624,-3.857,-3.8533,-3.8456,-3.8399,-3.8332,-3.829,-3.8252,-3.8244,-3.8239,-3.8255,-3.8278,-3.8264,-3.8246,-3.8245,-3.8244,-3.8244,-3.8243,-3.8243,-3.9022,-3.9,-3.8943,-3.8897,-3.8855,-3.8812,-3.8783,-3.8735,-3.869,-3.8626,-3.8592,-3.8538,-3.8475,-3.8382,-3.8341,-3.8295,-3.8282,-3.8275,-3.8273,-3.8272,-3.8276,-3.8286,-3.8282,-3.8282,-3.8282,-3.8281,-3.8281,0,-3.9044,-3.9005,-3.8963,-3.89,-3.8862,-3.8832,-3.8777,-3.8747,-3.8701,-3.8647,-3.8601,-3.8536,-3.8479,-3.8414,-3.8351,-3.8326,-3.8307,-3.8312,-3.8313,-3.8303,-3.8292,-3.8302,-3.8329,-3.8329,-3.8329,-3.8329,-3.8329,-3.8329,-3.9052,-3.9012,-3.8979,-3.8916,-3.8875,-3.8825,-3.8796,-3.8753,-3.871,-3.8642,-3.8596,-3.8554,-3.8494,-3.8426,-3.8371,-3.8353,-3.8331,-3.8341,-3.8317,-3.8308,-3.8304,-3.83,-3.831,-3.8337,-3.8337,-3.8332,-3.8332,-3.8332]}]]